GW5132 Weather Reports


time (UTC)temp
F
wind
direction
speed
knots
gust
knots
rain 1hr
in
rain 24hr
in
rain mn
in
humidity
%
barometer
mb
20260508063216 37 140 0.0 0.0 0.00 0.00 0.00 96 978.8
20260508062713 37 140 0.0 0.0 0.00 0.00 0.00 96 978.8
20260508062210 37 140 0.0 0.0 0.00 0.00 0.00 96 978.8
20260508061707 37 140 0.0 0.0 0.00 0.00 0.00 96 978.5
20260508061205 37 140 0.0 0.0 0.00 0.00 0.00 96 978.8
20260508060702 37 140 0.0 0.0 0.00 0.00 0.00 96 978.8
20260508060159 37 140 0.0 0.0 0.00 0.00 0.00 95 978.7
20260508055654 37 140 0.0 0.0 0.00 0.00 0.00 95 978.7
20260508055151 37 140 0.0 0.0 0.00 0.00 0.00 95 978.7
20260508054647 37 139 0.0 0.0 0.00 0.00 0.00 95 978.7
20260508054145 38 139 0.0 0.0 0.00 0.00 0.00 95 978.7
20260508053642 38 139 0.0 0.0 0.00 0.00 0.00 95 978.8
20260508053140 38 139 0.0 0.0 0.00 0.00 0.00 94 978.9
20260508052637 38 139 0.0 0.0 0.00 0.00 0.00 94 978.9
20260508052134 38 139 0.0 0.0 0.00 0.00 0.00 94 979.1
20260508051630 38 139 0.0 0.0 0.00 0.00 0.00 94 978.9
20260508051125 38 139 0.0 0.0 0.00 0.00 0.00 94 979.0
20260508050621 38 139 0.0 0.0 0.00 0.00 0.00 93 979.0
20260508050120 38 128 0.0 0.0 0.00 0.00 0.00 94 978.8
20260508045615 38 128 0.0 0.0 0.00 0.00 0.00 94 979.0
20260508045113 38 128 0.0 0.0 0.00 0.00 0.00 94 978.9
20260508044610 39 128 0.0 0.0 0.00 0.00 0.00 93 979.0
20260508044106 39 128 0.0 0.0 0.00 0.00 0.00 93 978.8
20260508043603 39 128 0.0 0.0 0.00 0.00 0.00 93 979.0
20260508043101 39 128 0.0 0.0 0.00 0.00 0.00 93 978.5
20260508042556 39 128 0.0 0.0 0.00 0.00 0.00 92 978.6
20260508042054 39 128 0.0 0.0 0.00 0.00 0.00 92 978.7
20260508041550 40 128 0.0 0.0 0.00 0.00 0.00 92 978.7
20260508041047 40 128 0.0 0.0 0.00 0.00 0.00 92 978.7
20260508040544 40 127 0.0 0.0 0.00 0.00 0.00 91 978.6
20260508040042 40 127 0.0 0.0 0.00 0.06 0.06 91 978.5
20260508035538 40 127 0.0 0.0 0.00 0.06 0.06 91 978.5
20260508035036 40 127 0.0 0.0 0.00 0.06 0.06 91 978.5
20260508034532 40 127 0.0 0.0 0.00 0.06 0.06 90 978.7
20260508034029 41 127 0.0 0.0 0.00 0.06 0.06 90 978.5
20260508033527 41 127 0.0 0.0 0.00 0.06 0.06 90 978.3
20260508033025 41 127 0.0 0.0 0.00 0.06 0.06 89 978.3
20260508032521 41 127 0.0 0.0 0.00 0.06 0.06 89 978.4
20260508032019 41 127 0.0 0.0 0.00 0.06 0.06 89 978.4
20260508031516 41 127 0.0 0.0 0.00 0.06 0.06 89 978.4
20260508031011 42 127 0.0 0.0 0.00 0.06 0.06 89 978.4
20260508030509 42 127 0.0 0.0 0.00 0.06 0.06 88 978.2
20260508030007 42 127 0.0 0.0 0.00 0.06 0.06 87 978.4
20260508025502 42 127 0.0 0.0 0.00 0.06 0.06 88 978.1
20260508024959 42 127 0.0 0.0 0.00 0.06 0.06 87 978.4
20260508024455 42 127 0.0 0.0 0.00 0.06 0.06 88 978.0
20260508023952 42 127 0.0 0.0 0.00 0.06 0.06 86 977.9
20260508023449 43 127 0.0 0.0 0.00 0.06 0.06 86 978.2
20260508022947 43 127 0.0 0.0 0.00 0.06 0.06 85 978.0
20260508022442 43 127 0.0 0.0 0.00 0.06 0.06 86 977.9
20260508021939 43 127 0.0 0.0 0.00 0.06 0.06 86 977.8
20260508021435 44 115 0.0 0.0 0.00 0.06 0.06 84 977.8
20260508020931 44 115 0.0 0.0 0.00 0.06 0.06 84 977.7
20260508020429 44 115 0.0 0.0 0.00 0.06 0.06 83 977.6
20260508015926 44 115 0.0 0.0 0.00 0.06 0.06 82 977.7
20260508015424 44 115 0.0 0.0 0.00 0.06 0.06 82 977.4
20260508014920 45 115 0.0 0.0 0.00 0.06 0.06 81 977.4
20260508014417 45 115 0.0 0.0 0.00 0.06 0.06 80 977.5
20260508013912 45 115 0.0 0.0 0.00 0.06 0.06 80 977.4
20260508013409 46 113 0.0 0.0 0.00 0.06 0.06 79 977.2
20260508012906 46 113 0.0 0.0 0.00 0.06 0.06 78 977.0
20260508012403 47 113 0.0 0.0 0.00 0.06 0.06 77 976.9
20260508011901 47 113 0.0 0.0 0.00 0.06 0.06 77 977.2
20260508011359 47 113 0.0 0.0 0.00 0.06 0.06 75 976.8
20260508010855 48 113 0.0 0.0 0.00 0.06 0.06 74 976.8
20260508010353 48 113 0.0 0.0 0.00 0.06 0.06 70 976.6
20260508005850 49 113 0.0 0.0 0.00 0.06 0.06 69 976.7
20260508005346 49 113 0.0 0.0 0.00 0.06 0.06 67 976.7
20260508004843 50 113 0.0 0.0 0.00 0.06 0.06 67 976.6
20260508004339 50 113 0.0 0.0 0.00 0.06 0.06 67 976.5
20260508003836 51 129 0.0 0.0 0.00 0.06 0.06 63 976.5
20260508003333 51 104 0.0 0.0 0.00 0.06 0.06 63 976.4
20260508002830 51 93 0.0 1.7 0.00 0.06 0.06 63 976.4
20260508002326 52 213 0.0 1.7 0.00 0.06 0.06 61 976.2
20260508001823 51 203 0.9 0.9 0.00 0.06 0.06 64 976.1
20260508001319 52 163 0.0 0.0 0.00 0.06 0.06 65 976.2
20260508000815 53 155 0.0 0.0 0.00 0.06 0.06 61 975.9
20260508000312 53 157 0.0 0.0 0.00 0.06 0.06 56 975.8
20260507235808 53 173 1.7 1.7 0.00 0.06 0.06 62 976.0
20260507235307 54 164 0.0 0.0 0.00 0.06 0.06 59 975.7
20260507234803 57 156 0.0 0.9 0.00 0.06 0.06 53 975.8
20260507234259 57 281 0.0 1.7 0.00 0.06 0.06 47 975.6
20260507233755 58 71 0.0 0.9 0.00 0.06 0.06 42 975.6
20260507233254 58 6 0.9 0.9 0.00 0.06 0.06 41 975.5
20260507232751 58 42 0.0 0.0 0.00 0.06 0.06 39 975.6
20260507232248 58 187 0.0 2.6 0.00 0.06 0.06 41 975.6
20260507231744 59 50 0.0 3.5 0.00 0.06 0.06 41 975.6
20260507231241 59 154 1.7 2.6 0.00 0.06 0.06 41 975.5
20260507230738 59 215 0.0 3.5 0.00 0.06 0.06 41 975.4
20260507230235 60 26 0.9 5.2 0.00 0.06 0.06 39 975.3
20260507225734 61 328 1.7 1.7 0.00 0.06 0.06 38 975.3
20260507225231 61 334 0.9 0.9 0.00 0.06 0.06 39 975.3
20260507224727 62 213 3.5 5.2 0.00 0.06 0.06 39 975.2
20260507224224 62 219 3.5 3.5 0.00 0.06 0.06 40 975.3
20260507223720 62 318 2.6 5.2 0.00 0.06 0.06 37 975.0
20260507223217 60 38 1.7 5.2 0.00 0.06 0.06 40 975.4
20260507222714 61 38 2.6 6.1 0.00 0.06 0.06 38 975.2
20260507222210 61 336 0.0 1.7 0.00 0.06 0.06 41 975.2
20260507221707 60 136 0.9 3.5 0.00 0.06 0.06 40 975.4
20260507221203 61 50 0.9 1.7 0.00 0.06 0.06 42 975.2
20260507220700 61 310 0.9 2.6 0.00 0.06 0.06 40 974.8
20260507220158 60 64 0.9 5.2 0.00 0.06 0.06 39 975.0
20260507215654 60 309 1.7 3.5 0.00 0.06 0.06 39 974.9
20260507215152 61 319 0.9 1.7 0.00 0.06 0.06 43 974.7
20260507214649 63 330 1.7 7.0 0.00 0.06 0.06 38 974.8
20260507214145 62 187 3.5 7.8 0.00 0.06 0.06 39 974.5
20260507213641 60 40 0.9 3.5 0.00 0.06 0.06 42 974.7
20260507213139 61 71 0.0 2.6 0.00 0.06 0.06 39 974.5
20260507212634 61 35 1.7 3.5 0.00 0.06 0.06 41 974.6
20260507212131 63 17 6.1 8.7 0.00 0.06 0.06 39 974.6
20260507211628 63 85 2.6 5.2 0.00 0.06 0.06 40 974.3
20260507211124 62 219 0.9 3.5 0.00 0.06 0.06 49 974.2
20260507210622 62 262 0.0 5.2 0.00 0.06 0.06 39 974.4
20260507210118 61 240 0.9 1.7 0.00 0.06 0.06 40 974.4
20260507205615 61 66 0.9 6.1 0.00 0.06 0.06 42 974.4
20260507205111 62 26 1.7 2.6 0.00 0.06 0.06 41 974.3
20260507204607 62 234 1.7 5.2 0.00 0.06 0.06 39 974.4
20260507204105 62 240 0.9 7.8 0.00 0.06 0.06 42 974.4
20260507203603 62 309 1.7 7.8 0.00 0.06 0.06 41 974.2
20260507203100 61 334 3.5 11.3 0.00 0.06 0.06 42 974.4
20260507202555 63 168 5.2 9.6 0.00 0.06 0.06 41 974.6
20260507202052 63 224 0.9 5.2 0.00 0.06 0.06 39 974.2
20260507201547 60 223 1.7 3.5 0.00 0.06 0.06 46 974.4
20260507201044 60 316 0.9 5.2 0.00 0.06 0.06 46 974.5
20260507200540 62 47 0.0 2.6 0.00 0.06 0.06 41 974.7
20260507200036 61 305 0.0 1.7 0.00 0.06 0.06 48 974.5
20260507195533 62 277 5.2 7.8 0.00 0.06 0.06 42 974.9
20260507195031 62 133 1.7 2.6 0.00 0.06 0.06 38 974.9
20260507194527 60 5 0.9 3.5 0.00 0.06 0.06 44 975.0
20260507194023 62 67 6.1 9.6 0.00 0.06 0.06 41 975.0
20260507193521 62 340 0.0 7.0 0.00 0.06 0.06 41 975.0
20260507193018 60 197 4.3 5.2 0.00 0.06 0.06 42 975.0
20260507192514 62 207 5.2 7.0 0.00 0.06 0.06 40 975.0
20260507192011 61 90 3.5 7.0 0.00 0.06 0.06 41 975.0
20260507191506 61 13 4.3 7.0 0.00 0.06 0.06 46 975.0
20260507191003 63 28 3.5 6.1 0.00 0.06 0.06 45 975.2
20260507190500 62 31 0.0 6.1 0.00 0.06 0.06 44 974.9
20260507185959 60 15 0.9 1.7 0.00 0.06 0.06 44 975.3
20260507185456 60 290 1.7 7.0 0.00 0.06 0.06 46 975.0
20260507184953 59 351 0.9 6.1 0.00 0.06 0.06 44 975.3
20260507184451 60 306 2.6 3.5 0.00 0.06 0.06 44 975.2
20260507183949 61 310 0.9 2.6 0.00 0.06 0.06 45 975.3
20260507183444 61 315 0.0 3.5 0.00 0.06 0.06 45 975.4
20260507182942 59 271 0.0 0.9 0.00 0.06 0.06 44 975.3
20260507182438 60 19 1.7 6.1 0.00 0.06 0.06 45 975.3
20260507181934 61 289 0.0 7.0 0.00 0.06 0.06 45 975.3
20260507181430 62 310 2.6 5.2 0.00 0.06 0.06 44 975.4
20260507180927 60 83 0.9 3.5 0.00 0.06 0.06 45 975.2
20260507180424 60 72 2.6 5.2 0.00 0.06 0.06 48 975.5
20260507175920 60 59 2.6 5.2 0.00 0.06 0.06 47 975.6
20260507175417 59 110 1.7 3.5 0.00 0.06 0.06 50 975.4
20260507174914 59 62 3.5 5.2 0.00 0.06 0.06 48 975.4
20260507174412 59 278 1.7 3.5 0.00 0.06 0.06 50 975.7
20260507173909 58 297 0.0 3.5 0.00 0.06 0.06 49 975.7
20260507173406 59 301 0.9 1.7 0.00 0.06 0.06 51 975.6
20260507172903 59 137 0.9 1.7 0.00 0.06 0.06 48 975.7
20260507172359 59 27 2.6 5.2 0.00 0.06 0.06 47 975.8
20260507171855 60 56 0.0 1.7 0.00 0.06 0.06 47 975.8
20260507171352 59 303 0.9 3.5 0.00 0.06 0.06 48 975.8
20260507170849 58 320 2.6 5.2 0.00 0.06 0.06 51 975.9
20260507170346 58 43 3.5 6.1 0.00 0.06 0.06 50 976.0
20260507165841 58 39 2.6 6.1 0.00 0.06 0.06 55 975.8
20260507165338 57 223 0.9 5.2 0.00 0.06 0.06 50 976.0
20260507164834 59 44 0.0 0.0 0.00 0.06 0.06 51 976.3
20260507164331 60 17 0.9 1.7 0.00 0.06 0.06 47 976.2
20260507163828 58 84 0.0 3.5 0.00 0.06 0.06 53 976.5
20260507163326 57 234 3.5 5.2 0.00 0.06 0.06 49 976.4
20260507162821 57 114 1.7 2.6 0.00 0.06 0.06 52 976.6
20260507162317 57 166 2.6 3.5 0.00 0.06 0.06 55 976.3
20260507161815 57 33 0.0 2.6 0.00 0.06 0.06 53 976.6
20260507161311 57 29 0.9 8.7 0.00 0.06 0.06 57 976.6
20260507160808 58 23 2.6 2.6 0.00 0.06 0.06 51 976.6
20260507160304 58 205 5.2 7.0 0.00 0.06 0.06 53 976.7
20260507155800 58 128 1.7 1.7 0.00 0.06 0.06 52 976.5
20260507155256 58 185 2.6 3.5 0.00 0.06 0.06 54 976.8
20260507154753 58 91 1.7 3.5 0.00 0.06 0.06 55 976.7
20260507154250 57 100 0.9 1.7 0.00 0.06 0.06 51 976.8
20260507153747 56 40 3.5 3.5 0.00 0.06 0.06 56 977.0
20260507153243 57 22 2.6 2.6 0.00 0.06 0.06 57 976.8
20260507152740 57 61 0.9 1.7 0.00 0.06 0.06 58 976.8
20260507152236 58 239 2.6 3.5 0.00 0.06 0.06 56 976.9
20260507151732 56 24 2.6 5.2 0.00 0.06 0.06 60 976.9
20260507151229 58 292 1.7 3.5 0.00 0.06 0.06 56 976.8
20260507150726 58 48 1.7 2.6 0.00 0.06 0.06 57 976.9
20260507150223 58 319 2.6 5.2 0.00 0.06 0.06 62 977.0
20260507145718 57 224 0.0 3.5 0.00 0.06 0.06 58 976.9
20260507145215 56 321 2.6 5.2 0.00 0.06 0.06 62 977.0
20260507144712 56 85 0.0 3.5 0.00 0.06 0.06 61 977.0
20260507144210 57 194 0.0 0.0 0.00 0.06 0.06 61 977.0
20260507143706 57 247 0.0 1.7 0.00 0.06 0.06 59 977.1
20260507143203 56 115 0.9 2.6 0.00 0.06 0.06 65 977.4
20260507142659 56 242 0.9 0.9 0.00 0.06 0.06 65 977.3
20260507142156 55 246 1.7 1.7 0.00 0.06 0.06 67 977.5
20260507141652 54 227 1.7 1.7 0.00 0.06 0.06 75 977.6
20260507141149 54 143 0.0 0.0 0.00 0.06 0.06 75 977.7
20260507140645 55 158 0.0 0.0 0.00 0.06 0.06 76 977.8
20260507140143 54 122 0.0 1.7 0.00 0.06 0.06 80 977.8
20260507135640 54 119 0.0 1.7 0.00 0.06 0.06 78 977.7
20260507135137 54 119 0.9 1.7 0.00 0.06 0.06 76 977.9
20260507134633 53 199 0.0 0.0 0.00 0.06 0.06 79 977.9
20260507134130 51 242 0.0 0.0 0.00 0.06 0.06 84 978.0
20260507133626 51 242 0.0 0.0 0.00 0.06 0.06 84 978.0
20260507133123 51 125 0.0 0.0 0.00 0.06 0.06 85 978.2
20260507132620 51 246 0.0 0.0 0.00 0.06 0.06 86 978.1
20260507132116 50 246 0.0 0.0 0.00 0.06 0.06 86 978.1
20260507131613 51 245 0.0 0.0 0.00 0.06 0.06 86 978.2
20260507131111 50 246 0.0 0.0 0.00 0.06 0.06 87 978.0
20260507130608 51 127 0.0 1.7 0.00 0.06 0.06 87 978.2
20260507130106 50 124 0.0 0.0 0.00 0.06 0.06 86 978.0
20260507125604 50 124 0.0 0.9 0.00 0.06 0.06 87 978.1
20260507125101 51 129 0.0 0.0 0.00 0.06 0.06 85 978.2
20260507124557 51 126 0.0 0.0 0.00 0.06 0.06 89 978.1
20260507124055 50 126 0.0 0.0 0.00 0.06 0.06 90 978.0
20260507123553 50 126 0.0 0.0 0.00 0.06 0.06 91 978.4
20260507123050 49 205 0.0 0.0 0.00 0.06 0.06 93 978.1
20260507122545 49 205 0.0 0.0 0.00 0.06 0.06 94 978.0
20260507122041 49 205 0.0 0.0 0.00 0.06 0.06 95 978.4
20260507121537 49 155 0.0 0.0 0.00 0.06 0.06 97 978.3
20260507121033 49 155 0.0 0.0 0.00 0.06 0.06 97 978.2
20260507120529 48 155 0.0 0.0 0.00 0.06 0.06 98 978.2
20260507120026 48 155 0.0 0.0 0.00 0.06 0.06 98 978.2
20260507115522 48 148 0.0 0.0 0.00 0.06 0.06 99 978.1
20260507115018 48 142 0.0 0.0 0.00 0.06 0.06 99 978.0
20260507114514 48 140 0.0 0.0 0.00 0.06 0.06 99 977.7
20260507114012 48 139 0.0 0.0 0.00 0.06 0.06 99 977.7
20260507113508 48 139 0.0 0.0 0.00 0.06 0.06 99 977.7
20260507113006 48 139 0.0 0.0 0.00 0.06 0.06 99 977.7
20260507112503 48 139 0.0 0.0 0.00 0.06 0.06 99 977.7
20260507112000 48 139 0.0 0.0 0.00 0.06 0.06 99 977.6
20260507111457 47 139 0.0 0.0 0.00 0.06 0.06 99 977.4
20260507110953 47 139 0.0 0.0 0.00 0.06 0.06 99 977.2
20260507110450 47 139 0.0 0.0 0.00 0.06 0.06 99 977.3
20260507105947 47 139 0.0 0.0 0.00 0.06 0.06 99 977.4
20260507105443 47 139 0.0 0.0 0.00 0.06 0.06 99 977.3
20260507104940 47 139 0.0 0.0 0.00 0.06 0.06 99 977.4
20260507104437 47 139 0.0 0.0 0.00 0.06 0.06 99 977.2
20260507103933 47 139 0.0 0.0 0.00 0.06 0.06 99 977.1
20260507103430 47 139 0.0 0.0 0.00 0.06 0.06 99 977.1
20260507102925 47 139 0.0 0.0 0.00 0.06 0.06 99 977.2
20260507102422 47 130 0.0 0.0 0.00 0.06 0.06 99 977.4
20260507101919 47 130 0.0 0.0 0.00 0.06 0.06 99 977.1
20260507101414 48 130 0.0 0.0 0.00 0.06 0.06 99 977.0
20260507100911 47 130 0.0 0.0 0.00 0.06 0.06 99 977.1
20260507100408 47 130 0.0 0.0 0.00 0.06 0.06 99 977.1
20260507095907 47 130 0.0 0.0 0.00 0.06 0.06 99 977.1
20260507095403 48 130 0.0 0.0 0.00 0.06 0.06 99 977.1
20260507094900 48 130 0.0 0.0 0.00 0.06 0.06 99 977.0
20260507094357 48 130 0.0 0.0 0.00 0.06 0.06 99 977.1
20260507093854 48 130 0.0 0.0 0.00 0.06 0.06 99 977.1
20260507093352 48 130 0.0 0.0 0.00 0.06 0.06 99 976.9
20260507092850 48 130 0.0 0.0 0.00 0.06 0.06 99 977.0
20260507092346 48 130 0.0 0.0 0.00 0.06 0.06 99 977.1
20260507091843 48 130 0.0 0.0 0.00 0.06 0.06 99 977.1
20260507091339 48 130 0.0 0.0 0.00 0.06 0.06 99 976.7
20260507090834 48 130 0.0 0.0 0.00 0.06 0.06 99 976.7
20260507090331 48 130 0.0 0.0 0.00 0.06 0.06 99 976.8
20260507085828 48 130 0.0 0.0 0.00 0.06 0.06 99 976.8
20260507085325 48 130 0.0 0.0 0.00 0.06 0.06 99 977.0
20260507084823 48 130 0.0 0.0 0.00 0.06 0.06 99 977.0
20260507084319 48 130 0.0 0.0 0.00 0.06 0.06 99 977.1
20260507083816 48 130 0.0 0.0 0.00 0.06 0.06 99 976.9
20260507083313 48 130 0.0 0.0 0.00 0.06 0.06 99 976.9
20260507082809 49 130 0.0 0.0 0.00 0.06 0.06 99 976.9
20260507082306 48 130 0.0 0.0 0.00 0.06 0.06 99 976.6
20260507081802 49 130 0.0 0.0 0.00 0.06 0.06 99 976.8
20260507081258 49 130 0.0 0.0 0.00 0.06 0.06 99 976.7
20260507080755 49 130 0.0 0.0 0.00 0.06 0.06 99 976.8
20260507080251 49 128 0.0 0.0 0.00 0.06 0.06 99 976.7
20260507075746 49 128 0.0 0.0 0.00 0.06 0.06 99 977.0
20260507075243 49 128 0.0 0.0 0.00 0.06 0.06 99 977.0
20260507074738 48 128 0.0 0.0 0.00 0.06 0.06 99 976.9
20260507074237 48 128 0.0 0.0 0.00 0.06 0.06 99 977.2
20260507073733 48 128 0.0 0.0 0.00 0.06 0.06 99 977.0
20260507073230 48 128 0.0 0.0 0.00 0.06 0.06 99 977.0
20260507072728 48 145 0.0 0.0 0.00 0.06 0.06 99 977.0
20260507072225 49 146 0.0 0.0 0.00 0.06 0.06 99 976.9
20260507071723 49 146 0.0 0.0 0.00 0.06 0.06 99 976.7
20260507071218 49 146 0.0 0.0 0.00 0.06 0.06 99 976.9
20260507070716 49 146 0.0 0.0 0.00 0.06 0.06 99 976.8
20260507070213 49 167 0.0 0.0 0.00 0.06 0.06 99 976.7
20260507065709 49 167 0.0 0.0 0.00 0.06 0.06 99 976.9
20260507065206 49 183 0.0 0.0 0.00 0.06 0.06 99 976.8
20260507064704 49 187 0.0 0.0 0.00 0.06 0.06 99 977.0
20260507064202 49 126 0.0 0.0 0.00 0.06 0.06 99 976.8
20260507063659 49 126 0.0 0.0 0.00 0.06 0.06 98 977.0